Location: Observatorio Las Palmas
(29.0667°N, 110.9333°W)
Time: 15:35:21
(UTC-07:00)

Hubble Space Telescope - Visible Passes

Search period start: 19 August 2017 00:00
Search period end: 29 August 2017 00:00
Orbit: 538 x 542 km, 28.5° (Epoch: 19 August)

Date Brightness Start Highest point End Pass type
(mag) Time Alt. Az. Time Alt. Az. Time Alt. Az.
19 Aug 1.8 03:48:18 40° ESE 03:48:18 40° ESE 03:51:06 10° E visible
19 Aug 0.8 05:24:04 10° W 05:28:12 83° S 05:32:20 10° E visible
20 Aug 2.4 03:38:46 31° E 03:38:46 31° E 03:41:02 10° E visible
20 Aug 0.7 05:14:09 11° W 05:18:07 79° S 05:22:15 10° E visible
21 Aug 2.9 03:29:18 23° E 03:29:18 23° E 03:30:57 10° E visible
21 Aug 0.7 05:04:40 15° W 05:08:01 74° S 05:12:08 10° ESE visible
22 Aug 3.4 03:19:53 17° E 03:19:53 17° E 03:20:52 10° E visible
22 Aug 0.8 04:55:16 21° W 04:57:55 66° S 05:02:01 10° ESE visible
23 Aug 3.8 03:10:33 11° E 03:10:33 11° E 03:10:46 10° E visible
23 Aug 0.9 04:45:56 29° W 04:47:48 58° SSW 04:51:52 10° ESE visible
24 Aug 1.0 04:36:43 40° WSW 04:37:41 49° SSW 04:41:41 10° ESE visible
25 Aug 1.2 04:27:36 41° SSW 04:27:36 41° SSW 04:31:27 10° SE visible
26 Aug 2.0 04:18:35 28° SSE 04:18:35 28° SSE 04:21:10 10° SE visible
27 Aug 2.9 04:09:41 16° SSE 04:09:41 16° SSE 04:10:48 10° SE visible
